KLM37J EHAM-EDDM

Flight info

Callsign KLM37J
Flight time 1h 4m
Altitude 33000
Route EDUPO Z739 MISGO DCT DOJOH DCT DODEN DCT TABUM DCT BOMBI T104 HAREM/N0389F270 T104 ROKIL ROKIL1B
Aircraft E75L/M-SDE3GILORVW/S

Departure

Time 2026-05-07 14:56
Airport Amsterdam Airport Schiphol (EHAM)

Arrival

Time 2026-05-07 16:00
Airport Munich Airport (EDDM)
Time Latitude Longitude Altitude Speed Heading
2026-05-07 14:19 52.30712 4.76955 -3 ft 0 kts 33°
2026-05-07 14:35 52.30698 4.76941 -3 ft 4 kts 33°
2026-05-07 14:35 52.30677 4.76919 -3 ft 2 kts 37°
2026-05-07 14:35 52.30662 4.76894 -3 ft 4 kts 70°
2026-05-07 14:35 52.30669 4.76861 -3 ft 4 kts 141°
2026-05-07 14:36 52.30691 4.76837 -3 ft 4 kts 149°
2026-05-07 14:36 52.30696 4.76832 -3 ft 2 kts 148°
2026-05-07 14:40 52.30692 4.76836 -3 ft 3 kts 148°
2026-05-07 14:40 52.30659 4.76922 -3 ft 15 kts 105°
2026-05-07 14:40 52.30561 4.77075 -3 ft 22 kts 154°
2026-05-07 14:40 52.30473 4.76993 -3 ft 17 kts 239°
2026-05-07 14:41 52.30411 4.76825 -3 ft 24 kts 238°
2026-05-07 14:41 52.30315 4.76574 -3 ft 31 kts 238°
2026-05-07 14:41 52.30233 4.76362 -3 ft 33 kts 238°
2026-05-07 14:41 52.30120 4.76067 -3 ft 35 kts 237°
2026-05-07 14:42 52.30041 4.75862 -3 ft 34 kts 237°
2026-05-07 14:42 52.29938 4.75590 -3 ft 33 kts 238°
2026-05-07 14:42 52.29855 4.75375 -3 ft 20 kts 239°
2026-05-07 14:42 52.29849 4.75164 -3 ft 17 kts 303°
2026-05-07 14:43 52.29931 4.75024 -3 ft 19 kts 314°
2026-05-07 14:43 52.30033 4.74836 -3 ft 25 kts 313°
2026-05-07 14:43 52.30145 4.74631 8 ft 22 kts 310°
2026-05-07 14:43 52.30251 4.74437 8 ft 23 kts 312°
2026-05-07 14:44 52.30372 4.74224 -3 ft 28 kts 329°
2026-05-07 14:44 52.30552 4.74204 -3 ft 26 kts
2026-05-07 14:44 52.30732 4.74221 -3 ft 24 kts
2026-05-07 14:44 52.30876 4.74234 -3 ft 18 kts
2026-05-07 14:45 52.30991 4.74246 -3 ft 16 kts
2026-05-07 14:45 52.31105 4.74256 -3 ft 16 kts
2026-05-07 14:45 52.31211 4.74267 -3 ft 14 kts
2026-05-07 14:45 52.31305 4.74275 -3 ft 14 kts
2026-05-07 14:46 52.31343 4.74280 -3 ft 12 kts
2026-05-07 14:46 52.31379 4.74311 -3 ft 11 kts 51°
2026-05-07 14:46 52.31393 4.74401 -3 ft 7 kts 88°
2026-05-07 14:46 52.31394 4.74444 -3 ft 0 kts 89°
2026-05-07 14:47 52.31394 4.74449 -3 ft 1 kts 89°
2026-05-07 14:47 52.31394 4.74450 -3 ft 0 kts 89°
2026-05-07 14:47 52.31394 4.74452 -3 ft 0 kts 89°
2026-05-07 14:48 52.31394 4.74453 -3 ft 1 kts 89°
2026-05-07 14:48 52.31394 4.74473 -3 ft 3 kts 86°
2026-05-07 14:48 52.31396 4.74516 -3 ft 5 kts 86°
2026-05-07 14:48 52.31396 4.74538 -3 ft 0 kts 87°
2026-05-07 14:49 52.31396 4.74539 -3 ft 1 kts 87°
2026-05-07 14:49 52.31397 4.74566 -3 ft 4 kts 86°
2026-05-07 14:49 52.31399 4.74620 -3 ft 6 kts 86°
2026-05-07 14:49 52.31420 4.74668 -3 ft 7 kts 18°
2026-05-07 14:50 52.31472 4.74672 -3 ft 8 kts 355°
2026-05-07 14:50 52.31520 4.74666 -3 ft 6 kts 356°
2026-05-07 14:50 52.31562 4.74662 -3 ft 1 kts 357°
2026-05-07 14:50 52.31567 4.74662 -3 ft 0 kts 357°
2026-05-07 14:53 52.31576 4.74661 -3 ft 5 kts 357°
2026-05-07 14:53 52.31635 4.74674 -3 ft 12 kts 28°
2026-05-07 14:54 52.31669 4.74794 -3 ft 0 kts 88°
2026-05-07 14:54 52.31669 4.74795 -3 ft 0 kts 88°
2026-05-07 14:55 52.31669 4.74796 -3 ft 0 kts 88°
2026-05-07 14:55 52.31673 4.74933 -5 ft 43 kts 87°
2026-05-07 14:55 52.31704 4.75851 -4 ft 118 kts 86°
2026-05-07 14:55 52.31743 4.76858 42 ft 155 kts 85°
2026-05-07 14:56 52.31799 4.78572 582 ft 174 kts 85°
2026-05-07 14:56 52.31887 4.80427 1596 ft 165 kts 83°
2026-05-07 14:56 52.31972 4.82245 2521 ft 159 kts 84°
2026-05-07 14:56 52.32001 4.83023 2767 ft 164 kts 85°
2026-05-07 14:57 52.32060 4.84923 3132 ft 185 kts 86°
2026-05-07 14:57 52.31974 4.86752 3464 ft 201 kts 100°
2026-05-07 14:57 52.31638 4.89034 3943 ft 215 kts 105°
2026-05-07 14:57 52.31185 4.91418 4594 ft 229 kts 108°
2026-05-07 14:58 52.30630 4.94078 4785 ft 263 kts 109°
2026-05-07 14:58 52.30033 4.96931 5524 ft 268 kts 109°
2026-05-07 14:58 52.29427 4.99783 6430 ft 269 kts 110°
2026-05-07 14:58 52.28838 5.02634 7243 ft 271 kts 108°
2026-05-07 14:59 52.28333 5.05609 7973 ft 276 kts 106°
2026-05-07 14:59 52.28122 5.06924 8287 ft 278 kts 105°
2026-05-07 14:59 52.27623 5.09933 8975 ft 284 kts 107°
2026-05-07 14:59 52.27057 5.12992 9705 ft 288 kts 109°
2026-05-07 15:00 52.26397 5.16125 10276 ft 300 kts 111°
2026-05-07 15:00 52.25661 5.19443 10565 ft 319 kts 110°
2026-05-07 15:00 52.25015 5.22497 11169 ft 323 kts 110°
2026-05-07 15:00 52.24222 5.25817 11947 ft 323 kts 120°
2026-05-07 15:01 52.22989 5.28933 12832 ft 323 kts 125°
2026-05-07 15:01 52.21733 5.31994 13628 ft 328 kts 124°
2026-05-07 15:01 52.20462 5.35132 14407 ft 331 kts 124°
2026-05-07 15:01 52.19223 5.38083 15087 ft 337 kts 126°
2026-05-07 15:02 52.17852 5.41213 15867 ft 340 kts 127°
2026-05-07 15:02 52.16431 5.44328 16542 ft 347 kts 128°
2026-05-07 15:02 52.14999 5.47475 17331 ft 349 kts 127°
2026-05-07 15:02 52.13585 5.50715 18100 ft 353 kts 126°
2026-05-07 15:03 52.12179 5.54017 18777 ft 357 kts 125°
2026-05-07 15:03 52.10757 5.57338 19416 ft 360 kts 126°
2026-05-07 15:03 52.09296 5.60682 20049 ft 363 kts 126°
2026-05-07 15:03 52.07818 5.64034 20640 ft 367 kts 127°
2026-05-07 15:04 52.06320 5.67425 21224 ft 370 kts 127°
2026-05-07 15:04 52.04778 5.70740 21793 ft 373 kts 130°
2026-05-07 15:04 52.03103 5.73840 22364 ft 376 kts 134°
2026-05-07 15:04 52.01302 5.76920 22954 ft 379 kts 135°
2026-05-07 15:05 51.99446 5.80056 23560 ft 383 kts 135°
2026-05-07 15:05 51.97662 5.83217 24087 ft 386 kts 133°
2026-05-07 15:05 51.95901 5.86504 24615 ft 389 kts 132°
2026-05-07 15:05 51.94150 5.89863 25137 ft 391 kts 131°
2026-05-07 15:06 51.92379 5.93243 25631 ft 394 kts 132°
2026-05-07 15:06 51.90585 5.96607 26111 ft 396 kts 133°
2026-05-07 15:06 51.88757 5.99994 26542 ft 400 kts 133°
2026-05-07 15:06 51.87004 6.03231 26939 ft 403 kts 133°
2026-05-07 15:07 51.85259 6.06459 27356 ft 405 kts 133°
2026-05-07 15:07 51.83396 6.09896 27803 ft 408 kts 133°
2026-05-07 15:07 51.81525 6.13331 28239 ft 410 kts 133°
2026-05-07 15:07 51.79624 6.16816 28662 ft 412 kts 133°
2026-05-07 15:08 51.77719 6.20303 29073 ft 415 kts 133°
2026-05-07 15:08 51.75837 6.23747 29465 ft 418 kts 133°
2026-05-07 15:08 51.73879 6.27322 29862 ft 420 kts 133°
2026-05-07 15:08 51.72284 6.30227 30172 ft 422 kts 133°
2026-05-07 15:09 51.70357 6.33738 30458 ft 425 kts 133°
2026-05-07 15:09 51.68393 6.37310 30762 ft 427 kts 133°
2026-05-07 15:09 51.66392 6.40943 31059 ft 429 kts 133°
2026-05-07 15:09 51.64405 6.44545 31344 ft 431 kts 133°
2026-05-07 15:10 51.62406 6.48165 31583 ft 434 kts 133°
2026-05-07 15:10 51.60388 6.51816 31802 ft 438 kts 133°
2026-05-07 15:10 51.58390 6.55429 32103 ft 439 kts 133°
2026-05-07 15:10 51.56352 6.59102 32370 ft 441 kts 133°
2026-05-07 15:11 51.54310 6.62781 32758 ft 439 kts 133°
2026-05-07 15:11 51.52290 6.66415 33131 ft 438 kts 133°
2026-05-07 15:11 51.48141 6.73858 32953 ft 457 kts 133°
2026-05-07 15:12 51.43856 6.81526 32963 ft 463 kts 133°
2026-05-07 15:12 51.39540 6.89212 32967 ft 463 kts 134°
2026-05-07 15:13 51.34935 6.96407 32967 ft 463 kts 138°
2026-05-07 15:13 51.30574 7.02895 32974 ft 464 kts 137°
2026-05-07 15:14 51.25966 7.10094 32974 ft 464 kts 136°
2026-05-07 15:14 51.21354 7.17300 32975 ft 464 kts 136°
2026-05-07 15:15 51.16775 7.24386 32972 ft 465 kts 135°
2026-05-07 15:15 51.12178 7.31605 32976 ft 465 kts 136°
2026-05-07 15:16 51.07507 7.38756 32975 ft 465 kts 136°
2026-05-07 15:16 51.02828 7.45871 32974 ft 465 kts 136°
2026-05-07 15:17 50.98163 7.52987 32972 ft 465 kts 136°
2026-05-07 15:17 50.93499 7.60078 32968 ft 464 kts 136°
2026-05-07 15:18 50.88822 7.67159 32971 ft 465 kts 136°
2026-05-07 15:18 50.84312 7.73971 32961 ft 465 kts 136°
2026-05-07 15:19 50.79598 7.80994 32952 ft 465 kts 137°
2026-05-07 15:19 50.75235 7.87390 32952 ft 465 kts 137°
2026-05-07 15:20 50.70534 7.94303 32946 ft 465 kts 137°
2026-05-07 15:20 50.65802 8.01252 32945 ft 464 kts 137°
2026-05-07 15:21 50.61078 8.08155 32973 ft 465 kts 139°
2026-05-07 15:21 50.56337 8.13462 32961 ft 465 kts 148°
2026-05-07 15:22 50.50874 8.18862 32975 ft 464 kts 148°
2026-05-07 15:22 50.45429 8.24290 32973 ft 464 kts 148°
2026-05-07 15:23 50.40029 8.29758 32972 ft 464 kts 148°
2026-05-07 15:23 50.34617 8.35189 32964 ft 464 kts 148°
2026-05-07 15:24 50.29406 8.40431 32974 ft 465 kts 142°
2026-05-07 15:24 50.25609 8.46147 32961 ft 467 kts 134°
2026-05-07 15:25 50.22375 8.51708 32968 ft 466 kts 132°
2026-05-07 15:25 50.18030 8.59214 32971 ft 466 kts 133°
2026-05-07 15:26 50.12868 8.67793 32968 ft 466 kts 134°
2026-05-07 15:26 50.09160 8.73963 32974 ft 466 kts 133°
2026-05-07 15:27 50.04722 8.81357 32970 ft 467 kts 134°
2026-05-07 15:27 49.99953 8.88197 32974 ft 466 kts 140°
2026-05-07 15:28 49.95094 8.94761 32974 ft 466 kts 139°
2026-05-07 15:28 49.90292 9.01611 32972 ft 466 kts 138°
2026-05-07 15:29 49.85543 9.08378 32972 ft 467 kts 138°
2026-05-07 15:29 49.80737 9.15124 32976 ft 467 kts 139°
2026-05-07 15:30 49.75914 9.21886 32972 ft 467 kts 139°
2026-05-07 15:30 49.71104 9.28629 32976 ft 467 kts 139°
2026-05-07 15:31 49.66344 9.35278 32970 ft 467 kts 139°
2026-05-07 15:31 49.61610 9.41992 32974 ft 467 kts 134°
2026-05-07 15:32 49.57435 9.49094 32947 ft 467 kts 132°
2026-05-07 15:32 49.53407 9.56260 32974 ft 468 kts 132°
2026-05-07 15:33 49.49504 9.63057 32973 ft 467 kts 133°
2026-05-07 15:33 49.45174 9.70522 32973 ft 468 kts 133°
2026-05-07 15:34 49.40883 9.77929 33065 ft 468 kts 133°
2026-05-07 15:34 49.36602 9.85309 33059 ft 467 kts 133°
2026-05-07 15:35 49.32458 9.92494 33052 ft 468 kts 133°
2026-05-07 15:35 49.28319 9.99540 33050 ft 468 kts 134°
2026-05-07 15:36 49.23909 10.06899 33058 ft 468 kts 133°
2026-05-07 15:36 49.19553 10.14289 32749 ft 469 kts 134°
2026-05-07 15:37 49.17351 10.17973 32470 ft 468 kts 134°
2026-05-07 15:37 49.15175 10.21596 32110 ft 468 kts 134°
2026-05-07 15:37 49.12984 10.25241 31773 ft 470 kts 134°
2026-05-07 15:37 49.10742 10.28975 31435 ft 472 kts 134°
2026-05-07 15:38 49.08548 10.32621 31126 ft 472 kts 134°
2026-05-07 15:38 49.06311 10.36269 30816 ft 472 kts 134°
2026-05-07 15:38 49.04050 10.39927 30465 ft 472 kts 134°
2026-05-07 15:38 49.01849 10.43530 30201 ft 452 kts 134°
2026-05-07 15:39 48.99798 10.46932 29917 ft 436 kts 134°
2026-05-07 15:39 48.97876 10.50060 29642 ft 421 kts 135°
2026-05-07 15:39 48.95879 10.53233 29348 ft 409 kts 135°
2026-05-07 15:39 48.93883 10.56371 29073 ft 419 kts 135°
2026-05-07 15:40 48.91875 10.59534 28814 ft 427 kts 135°
2026-05-07 15:40 48.89814 10.62804 28553 ft 430 kts 135°
2026-05-07 15:40 48.87747 10.66103 28275 ft 430 kts 134°
2026-05-07 15:40 48.85703 10.69430 28002 ft 430 kts 134°
2026-05-07 15:41 48.83662 10.72766 27722 ft 429 kts 134°
2026-05-07 15:41 48.81736 10.75859 27465 ft 427 kts 135°
2026-05-07 15:41 48.79831 10.78862 27209 ft 426 kts 135°
2026-05-07 15:41 48.78267 10.81304 27020 ft 423 kts 135°
2026-05-07 15:42 48.76249 10.84441 27071 ft 424 kts 136°
2026-05-07 15:42 48.74211 10.87547 26339 ft 427 kts 136°
2026-05-07 15:42 48.72233 10.90621 25755 ft 421 kts 135°
2026-05-07 15:42 48.70388 10.93590 25257 ft 415 kts 135°
2026-05-07 15:43 48.68603 10.96431 24720 ft 411 kts 135°
2026-05-07 15:43 48.67630 10.97957 24468 ft 409 kts 135°
2026-05-07 15:43 48.66468 10.99758 24186 ft 406 kts 136°
2026-05-07 15:43 48.64981 11.02055 23735 ft 406 kts 136°
2026-05-07 15:44 48.63748 11.03960 23377 ft 404 kts 136°
2026-05-07 15:44 48.62223 11.06321 23016 ft 400 kts 136°
2026-05-07 15:44 48.60778 11.08567 22587 ft 400 kts 136°
2026-05-07 15:44 48.59355 11.10777 22219 ft 398 kts 136°
2026-05-07 15:45 48.58196 11.12508 21914 ft 396 kts 141°
2026-05-07 15:45 48.56819 11.14184 21659 ft 391 kts 142°
2026-05-07 15:45 48.55315 11.16514 21462 ft 391 kts 131°
2026-05-07 15:45 48.53782 11.19597 21238 ft 396 kts 122°
2026-05-07 15:46 48.51775 11.25682 20804 ft 391 kts 111°
2026-05-07 15:46 48.50985 11.29056 20580 ft 390 kts 108°
2026-05-07 15:46 48.50284 11.32539 20364 ft 389 kts 106°
2026-05-07 15:47 48.49736 11.35468 19965 ft 390 kts 105°
2026-05-07 15:47 48.49157 11.38561 19564 ft 387 kts 106°
2026-05-07 15:47 48.48695 11.40954 19242 ft 384 kts 107°
2026-05-07 15:47 48.48235 11.43229 18967 ft 381 kts 107°
2026-05-07 15:48 48.47502 11.46753 18468 ft 379 kts 108°
2026-05-07 15:48 48.46719 11.50466 17806 ft 373 kts 108°
2026-05-07 15:48 48.45933 11.54176 17131 ft 370 kts 108°
2026-05-07 15:48 48.45167 11.57784 16494 ft 367 kts 108°
2026-05-07 15:49 48.44491 11.60916 15934 ft 364 kts 110°
2026-05-07 15:49 48.43890 11.63970 15393 ft 362 kts 101°
2026-05-07 15:49 48.43639 11.67737 14781 ft 360 kts 90°
2026-05-07 15:49 48.43806 11.71443 14191 ft 353 kts 82°
2026-05-07 15:50 48.44250 11.75046 13555 ft 346 kts 78°
2026-05-07 15:50 48.44723 11.78525 12879 ft 339 kts 79°
2026-05-07 15:50 48.45102 11.81994 12225 ft 331 kts 82°
2026-05-07 15:50 48.45370 11.85399 11602 ft 324 kts 84°
2026-05-07 15:51 48.45580 11.88755 10963 ft 319 kts 85°
2026-05-07 15:51 48.45779 11.92056 10344 ft 315 kts 85°
2026-05-07 15:51 48.46006 11.95324 9743 ft 311 kts 84°
2026-05-07 15:51 48.46261 11.98539 9091 ft 309 kts 83°
2026-05-07 15:52 48.46528 12.01768 8519 ft 311 kts 83°
2026-05-07 15:52 48.46787 12.04998 8122 ft 307 kts 83°
2026-05-07 15:52 48.47021 12.08092 8223 ft 290 kts 83°
2026-05-07 15:52 48.47248 12.11159 7902 ft 300 kts 83°
2026-05-07 15:53 48.47460 12.14279 7513 ft 298 kts 89°
2026-05-07 15:53 48.47036 12.17255 7241 ft 289 kts 120°
2026-05-07 15:53 48.45700 12.19426 6833 ft 282 kts 153°
2026-05-07 15:53 48.43869 12.20114 6538 ft 268 kts 185°
2026-05-07 15:54 48.42182 12.19226 6258 ft 254 kts 221°
2026-05-07 15:54 48.41150 12.17256 6000 ft 242 kts 245°
2026-05-07 15:54 48.40517 12.14932 5640 ft 240 kts 251°
2026-05-07 15:54 48.39867 12.12664 5372 ft 233 kts 244°
2026-05-07 15:55 48.38981 12.10748 5370 ft 219 kts 237°
2026-05-07 15:55 48.38514 12.08567 4771 ft 227 kts 269°
2026-05-07 15:55 48.38524 12.06238 4582 ft 213 kts 269°
2026-05-07 15:55 48.38366 12.04094 4332 ft 206 kts 263°
2026-05-07 15:56 48.38163 12.02021 4099 ft 195 kts 266°
2026-05-07 15:56 48.38042 12.00056 3863 ft 179 kts 266°
2026-05-07 15:56 48.37910 11.98302 3624 ft 159 kts 265°
2026-05-07 15:56 48.37789 11.96742 3436 ft 139 kts 266°
2026-05-07 15:57 48.37690 11.95388 3237 ft 123 kts 267°
2026-05-07 15:57 48.37591 11.94133 3079 ft 123 kts 263°
2026-05-07 15:57 48.37451 11.92833 2955 ft 127 kts 267°
2026-05-07 15:57 48.37382 11.91522 2901 ft 124 kts 268°
2026-05-07 15:58 48.37302 11.90218 2777 ft 127 kts 266°
2026-05-07 15:58 48.37225 11.88881 2570 ft 127 kts 265°
2026-05-07 15:58 48.37134 11.87563 2329 ft 127 kts 264°
2026-05-07 15:58 48.37016 11.86250 2105 ft 129 kts 262°
2026-05-07 15:59 48.36944 11.85367 1958 ft 132 kts 263°
2026-05-07 15:59 48.36829 11.83799 1746 ft 135 kts 265°
2026-05-07 15:59 48.36716 11.82426 1594 ft 133 kts 264°
2026-05-07 15:59 48.36609 11.81107 1479 ft 115 kts 262°
2026-05-07 16:00 48.36537 11.80137 1473 ft 66 kts 264°
2026-05-07 16:00 48.36493 11.79845 1476 ft 50 kts 242°
2026-05-07 16:00 48.36333 11.79466 1477 ft 25 kts 232°
2026-05-07 16:00 48.36242 11.79283 1478 ft 11 kts 231°
2026-05-07 16:01 48.36194 11.79189 1480 ft 11 kts 245°
2026-05-07 16:01 48.36183 11.79077 1483 ft 13 kts 263°
2026-05-07 16:01 48.36172 11.78927 1483 ft 16 kts 263°
2026-05-07 16:01 48.36158 11.78757 1483 ft 21 kts 263°
2026-05-07 16:02 48.36140 11.78496 1483 ft 29 kts 263°
2026-05-07 16:02 48.36115 11.78194 1483 ft 29 kts 264°
2026-05-07 16:02 48.36095 11.77894 1483 ft 29 kts 263°
2026-05-07 16:02 48.36068 11.77654 1481 ft 10 kts 229°
2026-05-07 16:03 48.36050 11.77645 1480 ft 0 kts 162°
2026-05-07 16:03 48.36044 11.77648 1483 ft 2 kts 162°
2026-05-07 16:03 48.36039 11.77650 1483 ft 2 kts 162°
2026-05-07 16:03 48.36020 11.77660 1475 ft 5 kts 162°
2026-05-07 16:04 48.35970 11.77675 1476 ft 14 kts 173°
2026-05-07 16:04 48.35896 11.77686 1480 ft 0 kts 174°
2026-05-07 16:04 48.35817 11.77698 1484 ft 0 kts 175°
2026-05-07 16:04 48.35788 11.77703 1483 ft 7 kts 171°
2026-05-07 16:05 48.35729 11.77715 1483 ft 10 kts 174°
2026-05-07 16:05 48.35645 11.77731 1477 ft 14 kts 172°
2026-05-07 16:05 48.35533 11.77751 1478 ft 19 kts 173°
2026-05-07 16:05 48.35388 11.77774 1472 ft 20 kts 171°
2026-05-07 16:06 48.35340 11.77939 1483 ft 19 kts 82°
2026-05-07 16:06 48.35342 11.78130 1476 ft 17 kts 127°
2026-05-07 16:06 48.35233 11.78180 1480 ft 18 kts 173°
2026-05-07 16:06 48.35147 11.78195 1477 ft 20 kts 173°
2026-05-07 16:07 48.34996 11.78222 1480 ft 18 kts 173°
2026-05-07 16:07 48.34939 11.78232 1476 ft 4 kts 172°
2026-05-07 16:07 48.34912 11.78232 1481 ft 6 kts 177°
2026-05-07 16:07 48.34877 11.78272 1480 ft 6 kts 121°
2026-05-07 16:08 48.34861 11.78319 1481 ft 5 kts 104°
2026-05-07 16:08 48.34862 11.78368 1483 ft 4 kts 84°
2026-05-07 16:08 48.34864 11.78387 1483 ft 0 kts 83°